小惑星2019 EJ3

2019 EJ3

English version
Home page
Updated on April 13, 2019

---------------------------------------------------------------------

・ プロフィール

発見日 2019年3月4日
発見光度 18.7等
発見者 Catalina Sky Survey

・ 軌道要素

Epoch 2019 Feb. 26.0 TT = JDT 2458540.5                 MPC
M 359.97577              (2000.0)            P               Q
n   0.00123000     Peri.  193.22290     -0.86054537     +0.46215777
a  86.2713581      Node   340.63824     +0.50602345     +0.82378858
e   0.9875184      Incl.  139.75753     +0.05832613     -0.32830255
P 801              H   22.7           G   0.15
From 72 observations 2019 Mar. 4-12.

・ 光度変化

        H = 22.7  G = 0.15

---------------------------------------------------------------------

軌道要素はM.P.E.C. 2019-F118に掲載されたものです。
光度グラフはComet for Windowsで作成したものです。

---------------------------------------------------------------------

Copyright(C) Seiichi Yoshida (comet@aerith.net). All rights reserved.